Terminal Aerodrome Forecast
Issued by NWS Upton, NY

Home | Current Version | Previous Version | Text Only | Print | Product List | Glossary On
Versions: 1 2 3 4 5 6 7 8 9 10 11 12 13 14 15 16 17 18 19 20 21 22 23 24 25 26 27 28 29 30 31
000
FTUS41 KOKX 241132
TAFEWR
TAF
KEWR 241132Z 2412/2518 27005KT P6SM SKC
     FM241700 21008KT P6SM SKC
      TEMPO 2419/2423 16008KT
     FM250500 21005KT P6SM SCT250
     FM251700 21010KT P6SM FEW150 SCT250=

USA.gov is the U.S. government's official web portal to all federal, state and local government web resources and services.